Weather in Vezhi

Russia / Kaluga Oblast     54°12′03″N   34°22′11″E
temp.,
°C
wind,
m/s
gust,
m/s
humid.,
%
clouds,
%
prec.,
mm/h
press.,
hPa
HPBL,
m
27 october, wed
wed2700:00+3sw61467100 0.0 1021404
03:00+3sw51370100 0.0 1020355
06:00+2ssw61373100 0.0 1018348
09:00+3sw61473100 0.0 1017454
12:00+4sw61273100 0.0 1017525
15:00+5wsw5118398 0.0 1018499
18:00+5wsw41090100 0.0 1018384
21:00+5sw41088100 0.0 1018277
28 october, thu
thu2800:00+4sw51293100 0.0 1017305
03:00+5sw51493100 0.0 1015408
06:00+6sw71595100 2.1 1013647
09:00+8wsw61495100 3.8 1013683
12:00+9w61395100 0.0 1014620
15:00+11wnw612815 0.2 1014930
18:00+8nnw6118098 0.1 1018423
21:00+7nnw51084100 0.1 1021595
29 october, fri
fri2900:00+7nne5880100 0.1 1024642
03:00+6ne3579100 0.1 1026195
06:00+6e237496 0.0 1028103
09:00+6sse237450 0.0 1030186
12:00+8s33655 0.0 1030723
15:00+9ssw33655 0.0 1030697
18:00+5ssw348442 0.0 103159
21:00+4ssw3689100 0.0 1031108
30 october, sat
sat3000:00+3ssw379297 0.0 1031137
03:00+3ssw389413 0.0 1032164
06:00+2ssw389482 0.0 1031159
09:00+3ssw399332 0.0 1032225
12:00+8ssw587424 0.0 1031407
15:00+9ssw510715 0.0 1030556
18:00+5s4119065 0.0 1030256
21:00+5ssw4139257 0.0 1030319
31 october, sun
sun3100:00+4ssw413925 0.0 1030335
03:00+4ssw412935 0.0 1029269
06:00+3ssw412945 0.0 1029264
09:00+4ssw513925 0.0 1029315
12:00+9ssw612725 0.0 1028507
15:00+9ssw511675 0.0 1026588
18:00+6s411785 0.0 1026286
21:00+5s413815 0.0 1026323